CAPE
0 0 0 0 0 0 0 0 0 187 403 211 121 171 306 445 294 356 577 595 663 796 668 687 912 1124 1116 1018 943 1004 707 592 548 517 448 326 328 181 103 134 204 8 0 0 0 0 0 0 0
0 0 0 0 0 0 2 0 14 435 421 76 21 5 19 77 582 612 507 738 728 698 763 729 789 1023 1178 1135 1148 1024 714 588 542 426 303 278 137 84 61 34 146 30 0 0 0 0 0 0 0
0 0 0 0 0 0 7 36 467 47 6 2 3 25 3 32 422 418 779 789 758 795 862 1079 964 1110 1222 1219 1169 1026 896 842 727 526 280 156 56 21 14 10 68 26 0 0 0 0 0 0 0
0 0 0 0 0 0 61 553 287 97 54 9 0 0 127 212 219 519 891 769 747 956 955 859 954 1056 1233 1242 1168 1002 892 841 656 614 370 113 12 0 0 13 97 4 0 0 0 0 0 0 0
0 0 0 0 0 0 57 447 253 186 23 7 18 27 191 679 376 595 981 647 909 897 1219 1269 784 1064 1122 1199 994 909 806 743 737 637 496 227 3 0 0 1 0 0 0 0 0 0 0 0 0
0 0 0 0 10 72 183 378 363 197 41 1 12 50 542 938 880 757 549 722 966 1099 1039 1129 871 1060 1113 1138 1067 833 703 715 732 673 566 289 144 120 0 0 0 0 0 0 0 0 19 0 0
0 0 0 26 138 293 459 374 205 116 27 0 22 164 790 968 1144 909 909 915 972 1035 1113 993 1024 929 876 861 725 576 578 638 656 631 559 398 292 258 173 134 70 78 81 69 42 0 0 0 0
0 0 4 158 256 474 464 119 47 14 24 83 146 350 649 1076 993 992 1072 921 971 1187 980 636 640 628 623 639 543 433 447 475 487 473 289 169 169 193 51 212 164 115 44 42 0 0 0 0 0
0 0 25 259 482 313 209 131 30 9 29 93 123 541 994 1009 829 766 906 756 813 987 592 536 509 501 365 234 367 287 348 367 330 267 142 97 244 221 130 23 52 0 0 0 0 0 0 0 0
0 0 0 0 86 63 82 33 35 46 106 112 195 1057 1144 881 901 890 817 843 1163 573 514 531 452 376 285 47 176 156 87 304 512 461 481 460 606 506 285 36 0 0 0 0 0 0 0 0 0
0 0 0 0 8 39 85 70 128 147 209 270 234 1307 812 1009 948 893 1196 800 340 331 233 213 305 228 70 30 153 197 480 642 716 743 711 829 800 857 686 111 18 5 0 0 0 0 0 0 0
0 0 0 0 16 25 59 110 152 278 183 195 241 1350 1312 1063 1352 1173 387 158 140 173 109 74 93 173 136 83 201 409 508 666 786 913 1030 1072 882 445 169 31 0 0 0 0 0 0 0 0 0
0 0 0 0 0 46 76 120 148 254 207 287 866 1291 1044 917 621 146 48 54 91 88 139 143 87 48 114 190 300 431 639 756 885 960 745 519 407 236 25 0 0 0 0 0 0 0 0 0 0
0 0 0 0 0 10 59 131 281 195 369 730 1168 923 379 178 58 18 0 0 63 118 212 322 250 238 181 363 515 574 586 637 747 471 224 80 212 95 0 0 0 0 0 0 0 0 0 0 0
0 0 0 0 0 0 38 38 0 136 380 684 602 410 228 9 0 0 0 0 41 194 319 436 548 476 340 141 118 191 64 54 89 28 1 4 4 0 0 0 0 0 0 0 0 0 0 0 0
0 0 0 0 0 0 1 2 0 100 319 452 395 321 218 82 4 0 0 0 16 318 518 447 176 82 22 9 2 1 0 0 0 0 0 0 0 0 0 0 0 0 0 0 0 0 0 0 0
0 0 0 0 0 0 0 0 0 173 228 438 445 345 220 75 12 32 93 48 41 358 690 397 289 77 25 2 0 0 0 0 0 0 0 0 0 0 0 0 0 0 0 0 0 0 0 0 0
2 0 0 0 0 0 0 0 0 251 202 222 350 370 287 205 154 87 300 238 302 677 649 433 451 20 1 0 0 0 0 0 0 0 0 0 0 0 0 0 0 0 0 0 0 0 0 0 0
0 3 0 0 0 0 0 0 0 49 317 262 249 301 315 254 55 240 484 558 675 689 494 535 114 2 0 1 0 0 0 0 0 0 0 0 0 0 0 0 0 0 0 0 0 0 0 0 0
0 8 34 0 0 2 20 34 0 4 308 351 320 312 307 178 262 396 648 662 594 572 681 340 222 95 13 10 0 0 0 0 0 0 0 0 0 0 0 0 0 0 0 0 0 0 0 0 1
50 64 39 12 0 0 18 66 37 0 4 51 146 307 274 354 497 583 848 1024 686 612 621 583 664 405 48 0 0 0 0 0 0 0 0 0 0 0 0 0 0 0 0 0 0 0 1 2 0
102 11 0 1 25 76 1 124 124 66 0 1 67 163 349 487 583 822 668 743 845 744 734 542 207 38 1 0 0 0 3 3 0 0 0 0 0 0 0 0 0 0 0 1 5 3 7 16 24
78 0 8 8 43 57 23 33 198 31 92 3 10 225 466 507 437 204 54 106 119 157 120 6 0 0 0 0 0 0 0 0 0 0 0 0 0 0 0 0 0 0 9 22 33 30 44 42 40
17 85 97 87 69 64 54 46 3 38 38 73 10 308 317 139 44 0 0 0 0 0 0 0 0 0 0 0 0 0 0 0 0 0 0 0 0 0 1 8 10 28 47 66 83 81 60 66 72
73 68 8 28 64 17 4 2 0 0 0 34 88 249 41 0 0 0 0 0 0 0 0 0 0 0 0 0 0 0 0 0 0 0 0 0 0 10 20 22 25 39 63 84 79 80 70 76 77
27 14 0 0 0 0 0 22 65 0 0 3 75 111 0 0 0 0 0 0 0 0 0 0 0 0 0 0 0 0 0 0 0 0 0 0 1 0 0 0 0 2 9 35 72 74 75 71 76
0 0 0 4 0 2 0 4 4 0 0 5 82 43 1 0 0 0 0 0 0 0 0 0 0 0 0 0 0 0 0 0 0 0 0 0 0 0 0 0 0 1 10 33 66 72 83 79 75
3 0 0 0 0 0 0 0 0 0 0 0 48 41 0 0 0 0 0 0 0 0 0 0 0 0 0 0 0 0 0 0 0 0 0 0 0 0 0 0 0 0 10 36 73 60 53 67 43
0 0 0 0 0 0 0 0 0 0 0 0 30 13 0 0 0 0 0 0 0 0 0 0 0 0 0 0 0 0 0 0 0 0 0 0 0 0 0 0 1 7 21 40 40 25 50 30 19
0 0 0 0 0 0 0 0 0 0 0 0 0 0 0 0 0 0 0 0 0 0 0 0 0 0 0 0 0 0 0 0 0 0 0 0 0 0 0 7 14 24 10 23 32 27 24 14 23
CIN
-0 -0 -0 -0 -0 -0 -0 -0 -0 -21 -13 -22 -40 -26 -0 -0 -0 -1 -0 -0 -0 -0 -0 -0 -6 -0 -0 -0 -0 -0 -3 -12 -13 -15 -24 -40 -28 -73 -94 -69 -38 -19 -0 -0 -0 -0 -0 -0 -0
-0 -0 -0 -0 -0 -0 -0 -0 -0 -0 -0 -13 -70 -60 -55 -27 -0 -0 -0 -0 -0 -0 -0 -0 -11 -0 -0 -0 -0 -0 -2 -11 -15 -24 -40 -42 -79 -95 -104 -108 -45 -98 -0 -0 -0 -0 -0 -0 -0
-0 -0 -0 -0 -0 -0 -0 -15 -0 -59 -61 -47 -115 -70 -136 -74 -3 -18 -0 -0 -0 -0 -0 -0 -2 -1 -0 -0 -0 -0 -0 -0 -0 -7 -41 -63 -117 -139 -141 -28 -74 -105 -0 -0 -0 -0 -0 -0 -0
-0 -0 -0 -0 -0 -0 -4 -0 -0 -68 -66 -78 -0 -0 -37 -64 -66 -53 -29 -0 -0 -0 -0 -5 -3 -2 -0 -0 -0 -0 -0 -0 -3 -3 -18 -108 -96 -0 -0 -27 -65 -19 -0 -0 -0 -0 -0 -0 -0
-0 -0 -0 -0 -0 -0 -10 -0 -0 -10 -115 -14 -2 -16 -3 -0 -18 -0 -0 -8 -0 -0 -0 -0 -18 -4 -0 -0 -0 -0 -1 -1 -0 -0 -14 -102 -49 -0 -0 -34 -0 -0 -0 -0 -0 -0 -0 -0 -0
-0 -0 -0 -0 -0 -36 -3 -0 -0 -13 -38 -31 -31 -29 -2 -0 -0 -0 -17 -1 -0 -0 -0 -0 -4 -2 -0 -0 -0 -4 -8 -1 -1 -6 -25 -91 -126 -133 -0 -0 -0 -0 -0 -0 -0 -0 -89 -0 -0
-0 -0 -0 -0 -17 -0 -0 -1 -13 -12 -17 -0 -34 -0 -0 -0 -0 -0 -0 -0 -0 -0 -0 -0 -0 -6 -2 -3 -14 -28 -21 -14 -16 -32 -34 -61 -73 -71 -82 -75 -82 -76 -61 -59 -68 -0 -0 -0 -0
-0 -0 -4 -23 -0 -0 -0 -14 -33 -89 -31 -43 -28 -5 -2 -0 -2 -0 -0 -0 -0 -0 -0 -0 -0 -0 -1 -4 -35 -56 -48 -46 -56 -50 -96 -121 -114 -91 -117 -52 -55 -64 -84 -93 -0 -0 -0 -0 -0
-0 -0 -1 -0 -0 -6 -4 -13 -32 -24 -3 -31 -92 -28 -4 -7 -6 -7 -2 -8 -32 -0 -2 -5 -8 -10 -28 -42 -40 -84 -69 -67 -90 -96 -140 -8 -17 -15 -27 -142 -95 -0 -0 -0 -0 -0 -0 -0 -0
-0 -0 -0 -0 -0 -2 -8 -10 -23 -70 -22 -48 -61 -28 -19 -28 -19 -13 -6 -7 -0 -18 -29 -26 -31 -39 -52 -107 -61 -74 -96 -23 -0 -3 -7 -0 -0 -0 -3 -15 -0 -0 -0 -0 -0 -0 -0 -0 -0
-0 -0 -0 -0 -0 -1 -2 -8 -22 -3 -0 -8 -21 -20 -46 -21 -9 -12 -1 -6 -54 -67 -84 -83 -67 -83 -111 -150 -42 -26 -1 -1 -0 -3 -1 -0 -0 -0 -0 -22 -27 -42 -0 -0 -0 -0 -0 -0 -0
-0 -0 -0 -0 -9 -2 -14 -11 -20 -0 -5 -23 -7 -3 -20 -28 -4 -5 -41 -74 -70 -70 -75 -110 -115 -98 -86 -59 -22 -13 -1 -0 -0 -0 -2 -0 -0 -13 -26 -34 -0 -0 -0 -0 -0 -0 -0 -0 -0
-0 -0 -0 -0 -0 -11 -20 -10 -7 -6 -45 -51 -33 -10 -35 -34 -32 -56 -79 -83 -76 -64 -55 -72 -105 -110 -73 -49 -30 -13 -2 -0 -0 -0 -11 -12 -7 -22 -53 -0 -0 -0 -0 -0 -0 -0 -0 -0 -0
-0 -0 -0 -0 -0 -69 -18 -23 -8 -47 -51 -59 -41 -23 -40 -60 -83 -101 -0 -0 -68 -50 -52 -53 -54 -55 -53 -31 -23 -18 -24 -17 -10 -48 -86 -96 -33 -46 -0 -0 -0 -0 -0 -0 -0 -0 -0 -0 -0
-0 -0 -0 -0 -0 -0 -24 -24 -0 -81 -49 -39 -33 -24 -40 -102 -0 -0 -0 -0 -86 -48 -56 -31 -28 -27 -54 -101 -99 -95 -145 -164 -127 -128 -9 -32 -135 -0 -0 -0 -0 -0 -0 -0 -0 -0 -0 -0 -0
-0 -0 -0 -0 -0 -0 -8 -0 -0 -115 -41 -26 -33 -52 -57 -85 -87 -0 -0 -0 -138 -35 -39 -57 -102 -119 -149 -123 -148 -59 -0 -0 -0 -0 -0 -0 -0 -0 -0 -0 -0 -0 -0 -0 -0 -0 -0 -0 -0
-0 -0 -0 -0 -0 -0 -0 -0 -0 -101 -61 -35 -39 -54 -86 -99 -126 -152 -156 -128 -106 -44 -20 -63 -57 -88 -126 -0 -0 -0 -0 -0 -0 -0 -0 -0 -0 -0 -0 -0 -0 -0 -0 -0 -0 -0 -0 -0 -0
-0 -0 -0 -0 -0 -0 -0 -0 -0 -78 -58 -66 -56 -68 -78 -88 -110 -214 -143 -117 -76 -22 -30 -60 -35 -85 -0 -0 -0 -0 -0 -0 -0 -0 -0 -0 -0 -0 -0 -0 -0 -0 -0 -0 -0 -0 -0 -0 -0
-0 -11 -0 -0 -0 -0 -0 -0 -0 -124 -70 -70 -90 -82 -88 -118 -258 -186 -141 -126 -75 -67 -88 -59 -123 -0 -0 -0 -0 -0 -0 -0 -0 -0 -0 -0 -0 -0 -0 -0 -0 -0 -0 -0 -0 -0 -0 -0 -0
-0 -9 -7 -0 -0 -4 -50 -44 -0 -42 -84 -72 -82 -101 -112 -180 -167 -176 -121 -120 -113 -78 -21 -54 -53 -70 -110 -59 -0 -0 -0 -0 -0 -0 -0 -0 -0 -0 -0 -0 -0 -0 -0 -0 -0 -0 -0 -0 -0
-25 -4 -22 -7 -0 -0 -46 -24 -103 -0 -167 -296 -242 -141 -155 -122 -118 -124 -74 -41 -65 -48 -25 -9 -0 -12 -47 -0 -0 -0 -0 -0 -0 -0 -0 -0 -0 -0 -0 -0 -0 -0 -0 -0 -0 -0 -0 -0 -0
-4 -82 -0 -28 -17 -0 -2 -0 -38 -131 -0 -45 -256 -216 -144 -128 -118 -58 -69 -37 -21 -17 -13 -8 -21 -36 -35 -0 -0 -0 -0 -0 -0 -0 -0 -0 -0 -0 -0 -0 -0 -0 -0 -0 -0 -0 -0 -0 -0
-38 -7 -55 -49 -8 -17 -23 -5 -4 -173 -114 -43 -239 -175 -122 -120 -126 -160 -178 -118 -93 -71 -40 -63 -0 -0 -0 -0 -0 -0 -0 -0 -0 -0 -0 -0 -0 -0 -0 -0 -0 -0 -0 -0 -0 -0 -0 -0 -0
-146 -67 -57 -42 -30 -10 -14 -30 -8 -24 -60 -149 -94 -130 -130 -186 -201 -0 -0 -0 -0 -0 -0 -0 -0 -0 -0 -0 -0 -0 -0 -0 -0 -0 -0 -0 -0 -0 -0 -0 -0 -0 -0 -0 -0 -0 -0 -0 -0
-70 -22 -6 -7 -17 -26 -51 -18 -0 -0 -0 -139 -172 -122 -194 -13 -0 -0 -0 -0 -0 -0 -0 -0 -0 -0 -0 -0 -0 -0 -0 -0 -0 -0 -0 -0 -0 -0 -0 -0 -0 -0 -0 -0 -0 -0 -0 -0 -0
-45 -26 -0 -0 -0 -0 -0 -59 -27 -0 -0 -183 -163 -123 -11 -0 -0 -0 -0 -0 -0 -0 -0 -0 -0 -0 -0 -0 -0 -0 -0 -0 -0 -0 -0 -0 -0 -0 -0 -0 -0 -0 -0 -0 -0 -0 -0 -0 -0
-0 -0 -0 -24 -1 -13 -31 -88 -9 -0 -0 -197 -155 -173 -83 -0 -0 -0 -0 -0 -0 -0 -0 -0 -0 -0 -0 -0 -0 -0 -0 -0 -0 -0 -0 -0 -0 -0 -0 -0 -0 -0 -0 -0 -0 -0 -0 -0 -0
-26 -0 -0 -0 -0 -0 -0 -0 -0 -0 -0 -0 -168 -160 -0 -0 -0 -0 -0 -0 -0 -0 -0 -0 -0 -0 -0 -0 -0 -0 -0 -0 -0 -0 -0 -0 -0 -0 -0 -0 -0 -0 -0 -0 -0 -0 -0 -0 -0
-0 -0 -0 -0 -0 -0 -0 -0 -0 -0 -0 -0 -148 -162 -0 -0 -0 -0 -0 -0 -0 -0 -0 -0 -0 -0 -0 -0 -0 -0 -0 -0 -0 -0 -0 -0 -0 -0 -0 -0 -0 -0 -0 -0 -0 -0 -0 -0 -0
-0 -0 -0 -0 -0 -0 -0 -0 -0 -0 -0 -0 -0 -0 -0 -0 -0 -0 -0 -0 -0 -0 -0 -0 -0 -0 -0 -0 -0 -0 -0 -0 -0 -0 -0 -0 -0 -0 -0 -0 -0 -0 -0 -0 -0 -0 -0 -0 -0
Wind_Speed
6 4 3 5 8 7 10 5 2 8 9 7 8 7 9 14 7 4 12 10 18 16 16 17 14 13 13 14 14 13 14 14 14 13 13 13 14 13 13 13 12 13 13 13 12 13 13 13 13
3 3 5 3 9 9 4 4 4 14 16 11 10 7 9 8 7 11 10 12 16 15 16 17 15 14 13 13 13 12 13 13 13 13 13 14 14 14 14 13 11 11 12 12 13 13 13 13 13
5 6 6 5 8 9 2 3 18 20 12 11 5 7 4 3 7 6 8 14 15 14 15 16 13 13 13 12 12 11 11 11 11 12 14 13 14 13 13 11 10 11 13 13 14 14 13 13 12
6 6 5 9 5 3 5 12 22 19 14 5 12 4 6 1 3 4 16 12 13 13 14 15 12 13 13 12 12 10 10 10 10 11 12 13 13 12 11 10 10 12 14 14 13 12 11 11 11
6 3 8 9 3 3 5 16 12 11 12 7 6 9 8 4 8 13 17 14 14 13 13 15 10 11 12 13 12 11 10 9 9 10 10 12 12 11 11 11 11 12 12 12 12 11 11 11 11
7 4 8 9 4 5 9 8 11 11 11 7 3 6 5 10 14 15 14 13 13 12 11 12 11 10 10 11 10 10 9 8 9 9 10 11 11 11 11 10 10 10 10 10 10 10 10 10 11
7 7 4 4 8 12 12 7 10 12 11 9 3 6 4 9 12 12 12 14 12 11 12 12 12 11 8 9 9 9 9 8 8 9 9 10 9 9 9 9 9 9 8 8 8 9 10 10 11
4 5 8 9 10 13 10 11 9 10 3 1 4 6 6 10 12 12 13 11 11 10 12 11 11 12 11 10 8 8 8 7 8 8 9 9 9 7 6 9 8 9 9 10 11 11 9 8 10
3 8 9 12 15 15 9 11 8 13 11 0 2 1 11 16 15 13 11 10 8 9 10 10 10 8 8 9 9 7 6 6 8 9 7 8 5 6 7 10 9 10 11 11 11 9 7 3 8
9 8 7 4 7 15 19 10 14 9 13 7 5 9 19 16 15 14 13 10 12 12 10 8 8 8 7 6 8 6 7 6 5 5 5 3 3 3 5 8 9 9 8 9 8 6 1 4 6
9 9 5 6 10 8 14 13 11 16 10 9 12 17 17 16 14 14 15 15 15 13 9 9 8 7 7 6 5 4 4 4 4 4 2 3 1 2 1 3 2 2 2 2 2 3 6 7 6
8 11 4 1 9 7 6 7 6 13 6 2 6 20 19 18 16 18 17 16 14 12 11 10 8 8 5 5 4 4 3 3 2 3 1 2 2 3 2 2 3 2 3 3 4 4 4 6 6
14 4 4 6 10 13 5 10 8 5 7 9 16 19 18 17 17 15 13 12 11 11 10 10 9 8 7 5 4 2 2 2 3 2 4 2 2 3 3 3 3 3 3 4 4 5 5 7 8
4 3 5 3 11 10 10 7 12 5 11 13 19 18 17 17 16 13 11 10 9 9 10 9 9 7 7 6 6 4 3 2 4 3 3 0 1 3 4 4 4 4 5 5 5 6 7 7 8
8 11 10 6 11 6 10 11 7 4 11 15 16 14 14 14 13 11 9 8 9 8 10 9 9 8 10 10 9 6 5 4 4 2 2 4 4 5 5 4 4 4 4 6 6 7 6 6 7
5 9 8 7 7 4 11 12 7 5 11 14 15 13 13 13 12 9 7 8 9 11 12 12 9 12 11 9 7 6 4 4 3 3 4 5 5 7 5 4 5 5 5 5 6 6 7 7 7
7 9 9 9 2 7 8 9 4 9 11 12 13 14 13 13 9 6 4 6 9 11 14 15 14 11 9 8 2 1 6 3 3 5 5 6 7 7 6 5 4 4 4 5 6 6 6 8 7
8 6 11 12 8 13 9 9 7 8 12 13 14 13 13 13 11 4 5 5 9 12 15 16 13 11 7 8 3 3 3 5 4 5 5 5 6 6 4 5 5 5 5 5 5 6 6 7 7
3 4 10 8 5 6 4 7 5 7 12 13 12 12 11 10 7 7 7 8 10 13 16 17 16 10 7 5 5 5 7 6 5 5 6 6 6 5 5 4 4 4 4 5 5 6 8 8 7
5 8 7 5 4 5 7 6 4 5 9 10 11 11 11 10 9 8 10 12 14 15 14 14 12 10 10 7 8 7 6 4 5 5 5 5 5 5 4 4 3 4 5 5 6 7 7 8 6
4 3 7 5 7 2 9 8 9 4 6 7 7 7 8 10 10 10 10 11 11 13 14 13 15 13 11 11 7 6 5 6 5 5 5 4 3 1 1 3 4 5 5 6 7 7 8 8 8
6 3 6 10 11 7 8 8 11 9 8 8 9 10 10 10 10 11 12 13 15 15 15 15 14 13 10 8 7 9 4 5 2 4 4 3 4 2 4 5 5 6 6 8 8 6 6 7 9
5 4 4 4 6 5 9 8 10 8 10 11 11 11 12 13 13 13 14 15 14 12 10 11 11 10 9 9 7 5 4 4 5 4 3 2 2 4 5 6 8 9 8 8 7 7 7 6 7
11 8 6 3 3 8 3 8 8 5 4 11 12 14 15 14 13 14 13 13 12 10 9 9 11 10 9 7 7 6 6 5 3 1 3 4 5 5 7 7 8 9 9 9 9 8 8 10 9
7 7 3 4 4 5 3 7 11 3 3 9 17 18 16 14 14 15 15 13 11 11 11 10 10 9 8 8 8 7 6 3 1 3 4 7 7 7 9 10 10 9 11 11 11 10 10 11 9
2 4 3 5 4 1 3 6 3 2 1 5 16 17 16 14 14 16 15 12 12 11 11 10 9 9 8 7 7 5 3 2 2 4 5 6 6 7 9 9 10 12 12 11 11 9 9 10 8
6 5 4 2 1 3 5 3 8 3 5 10 15 17 17 16 15 14 13 11 11 9 9 8 8 8 8 7 5 3 2 3 4 4 4 4 6 7 10 12 14 14 13 12 12 10 11 10 9
4 9 4 3 4 4 4 5 2 6 9 12 16 17 17 16 14 13 12 10 9 9 9 8 7 9 8 6 3 1 1 3 3 3 4 6 8 11 13 15 15 14 13 12 10 10 10 11 7
5 5 0 1 3 3 3 2 4 2 5 13 16 17 17 16 13 12 11 10 10 9 9 9 8 7 6 4 4 3 3 3 1 3 5 7 9 12 13 14 14 13 11 8 7 8 12 9 8
3 5 9 4 5 1 3 3 3 1 2 7 13 15 16 13 13 12 12 12 12 10 9 10 7 7 5 5 6 5 2 2 2 3 6 8 11 11 12 11 11 10 8 9 8 8 7 7 9
Wind_Direction
224 242 261 235 242 238 266 173 80 121 81 96 83 62 61 10 357 38 135 137 137 138 134 149 132 131 131 126 122 125 125 121 117 115 114 108 103 99 94 87 83 82 78 76 71 64 59 52 44
233 193 216 255 256 244 256 115 116 96 100 75 57 34 55 67 40 110 124 140 140 145 148 143 137 137 134 131 131 131 129 127 128 122 113 105 104 97 91 84 78 80 77 72 70 63 56 46 39
231 241 250 239 250 272 316 66 117 109 92 71 52 14 27 76 99 126 101 141 147 144 144 122 129 135 134 132 133 128 129 128 118 113 108 109 103 102 100 94 87 87 82 76 74 69 59 47 36
200 191 214 251 250 57 86 114 124 125 103 74 114 35 8 208 118 159 131 151 157 141 137 126 132 133 132 133 122 127 121 111 110 107 113 109 105 104 101 92 83 83 81 79 74 67 57 50 35
215 235 234 236 186 116 164 129 140 124 109 152 187 144 154 137 130 161 149 158 156 142 127 144 133 127 133 132 133 127 117 112 115 119 114 108 107 103 95 86 84 79 75 72 69 62 54 45 37
202 275 234 221 157 118 140 148 146 135 130 67 31 166 112 127 148 158 161 150 134 134 133 137 125 122 126 131 126 120 118 125 125 115 108 110 107 100 94 88 86 85 82 74 61 53 48 47 44
257 224 266 139 124 124 123 152 132 130 126 144 158 211 101 150 152 152 134 127 131 140 145 151 147 136 126 127 121 126 132 135 123 112 110 106 99 90 91 88 82 76 72 72 66 59 58 50 47
255 263 189 150 135 114 136 108 88 35 94 76 156 194 173 153 137 139 139 134 123 153 156 148 151 161 159 145 133 137 139 131 116 111 113 117 115 115 124 137 80 68 62 65 67 65 58 64 53
247 237 189 143 141 122 133 132 157 150 237 221 111 3 131 143 146 140 125 121 131 167 151 156 154 151 147 146 131 146 130 121 123 136 130 173 135 149 156 62 65 72 74 74 67 61 43 1 107
233 243 184 252 138 163 185 180 174 185 193 185 144 106 124 149 152 149 156 146 163 163 158 159 153 140 141 145 148 147 146 158 156 149 168 165 118 52 50 82 83 78 92 89 82 58 82 317 5
196 250 137 179 186 160 177 200 159 218 204 215 187 152 154 149 156 160 170 169 172 164 156 148 140 133 155 130 162 155 158 154 157 141 208 102 174 142 165 102 116 93 60 31 83 36 29 17 1
234 239 258 200 179 138 223 168 207 227 60 232 176 157 153 158 168 174 171 167 161 159 146 140 137 134 129 143 162 139 161 137 156 106 150 221 200 127 121 98 99 50 30 22 22 40 13 355 349
230 223 192 230 184 217 175 185 203 175 66 111 136 153 161 163 172 169 164 156 147 153 141 139 137 138 142 135 118 115 105 91 40 47 31 344 147 123 110 96 69 38 32 21 8 3 349 335 332
175 155 121 221 176 174 181 153 203 104 122 133 150 161 163 167 167 164 166 162 155 154 145 139 143 134 131 100 79 72 55 59 60 60 102 327 161 133 122 104 78 49 20 17 358 355 335 332 329
136 119 128 151 169 140 158 159 69 119 147 147 156 160 162 171 169 177 174 173 165 156 135 142 125 113 98 96 81 73 54 62 65 74 67 107 111 113 105 82 63 39 22 360 349 339 330 324 324
177 165 150 146 169 145 235 143 60 175 167 157 159 165 171 171 178 180 189 191 176 153 153 125 111 102 89 87 76 78 73 87 101 104 85 90 95 89 93 81 52 26 17 358 347 342 330 328 327
197 175 156 145 266 157 242 134 91 174 179 166 175 177 177 168 171 164 180 202 176 158 141 134 128 115 93 66 65 98 110 119 117 131 105 102 97 81 77 65 50 8 10 5 345 340 342 328 329
156 150 178 158 141 184 189 124 132 175 182 184 185 189 183 177 170 164 169 164 166 144 146 148 138 118 126 126 101 97 119 130 134 111 123 126 99 90 80 72 40 0 6 1 351 338 339 318 326
182 172 149 114 128 173 181 143 115 172 202 187 190 187 183 187 160 153 137 144 146 141 151 157 151 166 144 123 174 166 174 142 143 129 132 123 100 82 48 46 21 350 3 348 339 333 332 325 336
162 171 137 123 141 238 172 149 123 172 192 208 198 194 184 174 169 150 151 150 158 162 161 154 163 172 171 171 177 177 144 138 136 139 129 117 88 60 52 22 4 352 336 335 332 328 325 322 340
119 127 157 141 143 106 189 192 187 153 189 197 208 209 193 187 161 154 151 152 152 158 166 171 180 183 165 157 137 124 130 155 166 154 154 114 112 128 29 358 348 328 308 321 321 318 313 319 317
151 82 138 144 192 193 212 237 184 174 185 202 184 191 180 161 155 149 145 149 157 160 169 177 167 159 153 164 155 172 210 188 143 170 140 167 204 235 335 324 306 304 306 306 304 308 313 310 311
102 168 129 181 223 238 186 254 118 172 203 188 182 174 162 152 152 155 155 149 151 146 155 148 152 159 158 169 172 180 126 113 142 154 185 266 290 286 302 299 298 295 297 300 296 290 281 288 308
140 142 127 170 243 246 243 267 272 200 261 161 172 167 158 158 161 160 150 144 137 138 138 149 160 150 154 153 143 124 131 144 173 185 298 314 318 313 304 320 306 296 296 287 275 265 264 275 287
220 206 229 228 218 258 76 260 265 104 189 186 176 171 169 169 166 164 163 167 159 158 159 158 156 142 137 126 125 129 130 138 250 336 338 320 315 309 310 322 311 304 296 279 270 265 270 291 291
180 270 239 263 228 255 185 239 95 80 270 187 177 172 172 176 174 174 169 168 166 161 164 165 153 133 125 117 116 108 85 55 342 344 330 317 320 323 331 317 312 306 300 287 269 270 276 287 303
137 217 30 130 60 267 253 214 214 188 176 180 176 177 182 183 180 177 173 177 166 164 149 141 138 115 106 100 95 102 78 16 1 354 340 337 323 325 320 313 310 308 302 289 280 276 287 298 297
291 128 183 216 232 243 187 263 272 181 190 186 189 191 189 188 181 181 180 175 172 154 138 135 117 120 119 118 147 191 59 71 57 343 339 334 332 323 322 317 313 308 302 293 291 296 295 293 295
156 191 165 293 287 283 295 103 71 61 185 197 200 195 195 191 188 185 181 174 162 153 145 126 122 132 137 151 172 154 131 96 257 321 339 340 329 326 320 318 314 310 306 308 319 298 286 300 295
281 228 205 237 178 232 316 297 153 160 199 204 205 201 202 192 191 181 177 169 164 161 142 129 140 139 158 170 169 161 158 228 286 328 333 338 325 323 319 314 311 320 326 306 312 307 305 298 295